TimeCEST,TemperatureF,Dew PointF,Humidity,Sea Level PressureIn,VisibilityMPH,Wind Direction,Wind SpeedMPH,Gust SpeedMPH,PrecipitationIn,Events,Conditions,WindDirDegrees,DateUTC
12:00 AM,59.0,44.6,59,30.12,-9999.0,SSE,6.9,-,N/A,,Clear,160,2013-04-25 22:00:00
12:30 AM,57.2,44.6,63,30.12,-9999.0,SSE,8.1,-,N/A,,Clear,160,2013-04-25 22:30:00
1:00 AM,59.0,44.6,59,30.09,-9999.0,South,6.9,-,N/A,,Clear,170,2013-04-25 23:00:00
1:30 AM,53.6,44.6,72,30.09,-9999.0,South,8.1,-,N/A,,Clear,180,2013-04-25 23:30:00
2:00 AM,53,45,65,30.10,25,South,6.7,,,,Clear,190,2013-04-26 00:00:00
2:00 AM,53.6,44.6,72,30.09,-9999.0,SSW,5.8,-,N/A,,Clear,200,2013-04-26 00:00:00
2:30 AM,50.0,44.6,82,30.06,-9999.0,SSW,6.9,-,N/A,,Clear,200,2013-04-26 00:30:00
3:00 AM,48.2,44.6,87,30.06,-9999.0,SSW,5.8,-,N/A,,Clear,200,2013-04-26 01:00:00
3:30 AM,51.8,44.6,76,30.06,-9999.0,South,4.6,-,N/A,,Clear,190,2013-04-26 01:30:00
4:00 AM,53.6,42.8,67,30.04,-9999.0,South,3.5,-,N/A,,Clear,190,2013-04-26 02:00:00
4:30 AM,48.2,42.8,82,30.04,-9999.0,SSW,4.6,-,N/A,,Clear,210,2013-04-26 02:30:00
5:00 AM,48.2,42.8,82,30.01,-9999.0,SSW,5.8,-,N/A,,Clear,210,2013-04-26 03:00:00
5:30 AM,50.0,44.6,82,30.01,-9999.0,South,6.9,-,N/A,,Clear,190,2013-04-26 03:30:00
6:00 AM,48.2,42.8,82,30.01,-9999.0,South,6.9,-,N/A,,Clear,190,2013-04-26 04:00:00
6:30 AM,48.2,44.6,87,29.98,-9999.0,SSW,6.9,-,N/A,,Clear,210,2013-04-26 04:30:00
7:00 AM,51.8,44.6,76,29.98,-9999.0,SSW,6.9,-,N/A,,Clear,210,2013-04-26 05:00:00
7:30 AM,53.6,48.2,82,29.98,-9999.0,SW,6.9,-,N/A,,Clear,230,2013-04-26 05:30:00
8:00 AM,56,48,67,29.99,22,SW,6.7,,,,,230,2013-04-26 06:00:00
8:00 AM,57.2,48.2,72,29.98,-9999.0,SW,6.9,-,N/A,,Clear,220,2013-04-26 06:00:00
8:30 AM,60.8,50.0,68,29.98,-9999.0,SSW,6.9,-,N/A,,Clear,210,2013-04-26 06:30:00
9:00 AM,62.6,50.0,63,29.98,-9999.0,SSW,5.8,-,N/A,,Clear,210,2013-04-26 07:00:00
9:30 AM,66.2,50.0,56,29.95,-9999.0,SSW,6.9,-,N/A,,Clear,210,2013-04-26 07:30:00
10:00 AM,68.0,53.6,60,29.95,-9999.0,SSW,8.1,-,N/A,,Clear,210,2013-04-26 08:00:00
10:30 AM,69.8,50.0,49,29.95,-9999.0,SW,10.4,-,N/A,,Clear,220,2013-04-26 08:30:00
11:00 AM,71.6,50.0,46,29.92,-9999.0,SW,9.2,-,N/A,,Clear,220,2013-04-26 09:00:00
11:30 AM,71.6,50.0,46,29.92,-9999.0,SSW,10.4,-,N/A,,Clear,210,2013-04-26 09:30:00
12:00 PM,73.4,46.4,38,29.89,-9999.0,SW,9.2,-,N/A,,Clear,220,2013-04-26 10:00:00
12:30 PM,75.2,46.4,36,29.89,-9999.0,SW,11.5,-,N/A,,Clear,220,2013-04-26 10:30:00
1:00 PM,75.2,46.4,36,29.86,-9999.0,WSW,12.7,-,N/A,,Clear,240,2013-04-26 11:00:00
1:30 PM,73.4,46.4,38,29.86,-9999.0,SW,16.1,-,N/A,,Clear,230,2013-04-26 11:30:00
2:00 PM,75,44,23,29.79,25,WSW,11.2,,,,Scattered Clouds,250,2013-04-26 12:00:00
2:00 PM,75.2,44.6,34,29.83,-9999.0,SW,11.5,-,N/A,,Clear,220,2013-04-26 12:00:00
2:30 PM,75.2,44.6,34,29.83,-9999.0,SW,13.8,-,N/A,,Clear,230,2013-04-26 12:30:00
3:00 PM,77.0,46.4,34,29.80,-9999.0,SW,12.7,-,N/A,,Clear,230,2013-04-26 13:00:00
3:30 PM,77.0,48.2,36,29.77,-9999.0,SSW,13.8,-,N/A,,Clear,210,2013-04-26 13:30:00
4:00 PM,77.0,46.4,34,29.77,-9999.0,SW,13.8,-,N/A,,Clear,220,2013-04-26 14:00:00
4:30 PM,75.2,46.4,36,29.74,-9999.0,South,11.5,-,N/A,,Clear,190,2013-04-26 14:30:00
5:00 PM,77.0,48.2,36,29.74,-9999.0,SSW,12.7,-,N/A,,Clear,200,2013-04-26 15:00:00
5:30 PM,75.2,50.0,41,29.71,-9999.0,SSW,11.5,-,N/A,,Clear,210,2013-04-26 15:30:00
6:00 PM,75.2,48.2,38,29.71,-9999.0,SSW,12.7,-,N/A,,Clear,210,2013-04-26 16:00:00
6:30 PM,71.6,50.0,46,29.68,-9999.0,SSW,12.7,-,N/A,,Clear,210,2013-04-26 16:30:00
7:00 PM,69.8,48.2,46,29.68,-9999.0,SSW,10.4,-,N/A,,Clear,210,2013-04-26 17:00:00
7:30 PM,69.8,50.0,49,29.65,-9999.0,SSW,9.2,-,N/A,,Clear,210,2013-04-26 17:30:00
8:00 PM,68,47,36,29.62,28,SSW,4.5,,,,Scattered Clouds,210,2013-04-26 18:00:00
8:00 PM,68.0,48.2,49,29.65,-9999.0,SSW,6.9,-,N/A,,Clear,210,2013-04-26 18:00:00
8:30 PM,66.2,46.4,49,29.62,-9999.0,SSW,8.1,-,N/A,,Clear,210,2013-04-26 18:30:00
9:00 PM,68.0,46.4,46,29.62,-9999.0,SSW,5.8,-,N/A,,Clear,200,2013-04-26 19:00:00
9:30 PM,68.0,46.4,46,29.62,-9999.0,SSW,5.8,-,N/A,,Clear,210,2013-04-26 19:30:00
10:00 PM,64.4,48.2,56,29.62,-9999.0,SSW,5.8,-,N/A,,Clear,210,2013-04-26 20:00:00
10:30 PM,64.4,48.2,56,29.62,-9999.0,SSW,8.1,-,N/A,,Clear,210,2013-04-26 20:30:00
11:00 PM,64.4,48.2,56,29.59,-9999.0,SW,4.6,-,N/A,,Clear,220,2013-04-26 21:00:00
11:30 PM,64.4,48.2,56,29.59,-9999.0,SSW,5.8,-,N/A,,Clear,200,2013-04-26 21:30:00
11:46 PM,64.4,50.0,59,29.59,6.2,SSW,9.2,-,N/A,Rain,Light Rain,210,2013-04-26 21:46:00